(58007) = 1980 PU4 = 2000 GA167 = 2002 TL234

Discovered at Socorro on 2002-10-06 by LINEAR.

Orbit

Orbit type: Main Belt

Note: WebGL enabled browser required.

epoch2024-03-31.0
epoch JD2460400.5
perihelion date2022-09-11.40420
perihelion JD2459833.90420
argument of perihelion (°)332.01363
ascending node (°)297.81732
inclination (°)13.88247
eccentricity0.1575986
perihelion distance (AU)2.5760400
Tisserand w.r.t. Jupiter3.2
ΔV w.r.t. Earth (km/sec)10.9
semimajor axis (AU)3.0579721
mean anomaly (°)104.43040
mean daily motion (°/day)0.18431200
aphelion distance (AU)3.540
period (years)5.35
P-vector [x]0.00917275
P-vector [y]-0.86682350
P-vector [z]-0.49853072
Q-vector [x]0.97718220
Q-vector [y]-0.09802905
Q-vector [z]0.18842836
absolute magnitude13.89
phase slope0.15
uncertainty0
referenceMPEC 2024-E02
observations used1552
oppositions22
arc length (days)15818
first opposition used1980
last opposition used2023
residual rms (arc-secs)0.66
perturbers coarse indicatorM-v
perturbers precise indicator003Ek
first observation date used1980-08-04.0
last observation date used2023-11-25.0
computer nameMPCLINUX
JD of orbit computation2456700.469020
perihelion JD uncertainty (days)1.2033E-04
argument of perihelion uncertainty (°)3.3489E-05
ascending node uncertainty (°)2.5473E-05
inclination uncertainty (°)6.4405E-06
eccentricity uncertainty 5.3346E-08
perihelion distance uncertainty (AU)1.5958E-07
Minimum Orbit Intersection Distances (in AU)
for orbit epoch: 2460400.5, reference: E2024-E02
Mercury2.11202
Venus1.85287
Earth1.56815
Mars1.13166
Jupiter1.66418
Saturn5.53934
Uranus15.1777
Neptune26.4744

Observations

1577 total observations over interval: 1980 08 04.30174 – 2023 11 25.259007
These data are available for download (format description).

Date (UT) J2000 RA J2000 Dec Magn Location Ref
1980 08 04.30174 21 25 26.64 -07 09 14.3 17.5 V 675 – Palomar Mountain MPC 18043
1980 08 05.34965 21 24 29.27 -07 07 50.9   675 – Palomar Mountain MPC 18043
1998 12 17.41849 07 28 54.25 +26 54 29.4 18.8   704 – Lincoln Laboratory ETS, New Mexico MPS 64198
1998 12 17.44122 07 28 53.22 +26 54 29.9 19.3   704 – Lincoln Laboratory ETS, New Mexico MPS 64198
1998 12 17.46389 07 28 52.17 +26 54 28.9 19.3   704 – Lincoln Laboratory ETS, New Mexico MPS 64198
1998 12 17.48665 07 28 51.16 +26 54 25.9 19.5   704 – Lincoln Laboratory ETS, New Mexico MPS 64198
1998 12 17.50990 07 28 49.64 +26 54 27.9 20.0   704 – Lincoln Laboratory ETS, New Mexico MPS 64198
2000 03 09.36567 11 02 24.19 -11 41 50.7 18.3   704 – Lincoln Laboratory ETS, New Mexico MPS 63036
2000 03 09.37850 11 02 23.47 -11 41 49.0 19.0   704 – Lincoln Laboratory ETS, New Mexico MPS 63036
2000 03 09.39134 11 02 22.79 -11 41 46.9 19.0   704 – Lincoln Laboratory ETS, New Mexico MPS 63036
2000 03 09.40418 11 02 22.12 -11 41 45.9 18.6   704 – Lincoln Laboratory ETS, New Mexico MPS 63036
2000 03 09.41709 11 02 21.39 -11 41 44.0 18.6   704 – Lincoln Laboratory ETS, New Mexico MPS 63036
2000 04 04.20088 10 42 37.09 -10 06 51.8 17.4 R 699 – Lowell Observatory-LONEOS MPS 14469
2000 04 04.21667 10 42 36.50 -10 06 47.1   699 – Lowell Observatory-LONEOS MPS 14469
2000 04 04.23251 10 42 35.91 -10 06 43.1   699 – Lowell Observatory-LONEOS MPS 14469
2000 04 04.24839 10 42 35.35 -10 06 38.0   699 – Lowell Observatory-LONEOS MPS 14469
2000 04 07.20200 10 40 58.36 -09 53 35.0 19.2   704 – Lincoln Laboratory ETS, New Mexico MPS 14469
2000 04 07.21610 10 40 57.88 -09 53 32.1 19.7   704 – Lincoln Laboratory ETS, New Mexico MPS 14469
2000 04 07.23021 10 40 57.45 -09 53 28.7 19.2   704 – Lincoln Laboratory ETS, New Mexico MPS 14469
2000 04 07.24436 10 40 57.00 -09 53 25.8 18.9   704 – Lincoln Laboratory ETS, New Mexico MPS 14469
2000 04 07.25847 10 40 56.62 -09 53 22.1 19.1   704 – Lincoln Laboratory ETS, New Mexico MPS 14469
2001 06 25.33416 19 19 19.69 -28 43 31.8 16.8   644 – Palomar Mountain/NEAT MPS 64198
2001 06 25.34482 19 19 19.06 -28 43 29.4 16.6   644 – Palomar Mountain/NEAT MPS 64198
2001 06 25.35558 19 19 18.48 -28 43 27.3 16.8   644 – Palomar Mountain/NEAT MPS 64198
2002 09 27.47802 01 16 39.60 +29 14 10.4 18.6   644 – Palomar Mountain/NEAT MPS 64198
2002 09 27.48042 01 16 39.51 +29 14 11.3 18.6   644 – Palomar Mountain/NEAT MPS 64198
2002 09 27.48864 01 16 39.09 +29 14 09.6 18.6   644 – Palomar Mountain/NEAT MPS 64198
2002 09 27.49098 01 16 38.97 +29 14 10.4 18.5   644 – Palomar Mountain/NEAT MPS 64198
2002 09 27.49915 01 16 38.56 +29 14 08.8 18.6   644 – Palomar Mountain/NEAT MPS 64198
2002 09 27.50154 01 16 38.47 +29 14 09.7 18.4   644 – Palomar Mountain/NEAT MPS 64198
2002 10 06.26274 01 09 19.15 +28 55 36.8 18.2   704 – Lincoln Laboratory ETS, New Mexico MPS 64198
2002 10 06.27831 01 09 18.31 +28 55 34.0 18.6   704 – Lincoln Laboratory ETS, New Mexico MPS 64198
2002 10 06.29381 01 09 17.47 +28 55 30.8 18.8   704 – Lincoln Laboratory ETS, New Mexico MPS 64198
2002 10 06.30930 01 09 16.66 +28 55 28.1 18.8   704 – Lincoln Laboratory ETS, New Mexico MPS 64198
2002 10 06.32476 01 09 15.86 +28 55 25.6 19.2   704 – Lincoln Laboratory ETS, New Mexico MPS 64198
2002 10 06.39193 01 09 12.28 +28 55 13.8 18.5 R 699 – Lowell Observatory-LONEOS MPS 64198
2002 10 06.40862 01 09 11.35 +28 55 09.6   699 – Lowell Observatory-LONEOS MPS 64198
2002 10 06.42524 01 09 10.49 +28 55 06.4   699 – Lowell Observatory-LONEOS MPS 64198
2002 10 06.44194 01 09 09.65 +28 55 03.5   699 – Lowell Observatory-LONEOS MPS 64198
2002 10 10.25315 01 05 51.33 +28 41 54.6 18.8   704 – Lincoln Laboratory ETS, New Mexico MPS 64198
2002 10 10.26868 01 05 50.43 +28 41 50.8 18.9   704 – Lincoln Laboratory ETS, New Mexico MPS 64198
2002 10 10.28520 01 05 49.54 +28 41 47.5 18.7   704 – Lincoln Laboratory ETS, New Mexico MPS 64198
2002 10 10.30072 01 05 48.72 +28 41 42.9 19.6   704 – Lincoln Laboratory ETS, New Mexico MPS 64198
2002 10 10.31657 01 05 47.78 +28 41 39.0 19.3   704 – Lincoln Laboratory ETS, New Mexico MPS 64198
2002 10 15.26215 01 01 30.90 +28 20 30.2 18.8   704 – Lincoln Laboratory ETS, New Mexico MPS 64198
2002 10 15.27862 01 01 30.00 +28 20 24.7 18.8   704 – Lincoln Laboratory ETS, New Mexico MPS 64198
2002 10 15.31137 01 01 28.23 +28 20 15.3 19.0   704 – Lincoln Laboratory ETS, New Mexico MPS 64198
2002 10 15.32776 01 01 27.38 +28 20 11.0 18.9   704 – Lincoln Laboratory ETS, New Mexico MPS 64198
2002 11 08.24751 00 44 07.13 +25 53 54.3 19.6   704 – Lincoln Laboratory ETS, New Mexico MPS 66185
2002 11 08.28111 00 44 06.15 +25 53 40.8 18.7   704 – Lincoln Laboratory ETS, New Mexico MPS 66185
2002 11 08.29802 00 44 05.65 +25 53 34.3 18.9   704 – Lincoln Laboratory ETS, New Mexico MPS 66185
2002 11 11.18665 00 42 39.78 +25 33 44.7 18.5 R 699 – Lowell Observatory-LONEOS MPS 66185
2002 11 11.20508 00 42 39.24 +25 33 36.3   699 – Lowell Observatory-LONEOS MPS 66185
2002 11 11.22351 00 42 38.62 +25 33 28.9   699 – Lowell Observatory-LONEOS MPS 66185
2002 11 11.24194 00 42 38.08 +25 33 21.0   699 – Lowell Observatory-LONEOS MPS 66185
2002 11 14.09131 00 41 24.33 +25 13 55.1 18.5   644 – Palomar Mountain/NEAT MPS 66185
2002 11 14.11198 00 41 23.82 +25 13 46.7 18.8   644 – Palomar Mountain/NEAT MPS 66185
2002 11 14.13420 00 41 23.25 +25 13 37.9 19.2   644 – Palomar Mountain/NEAT MPS 66185
2002 12 02.18699 00 37 52.60 +23 21 30.0 19.3   704 – Lincoln Laboratory ETS, New Mexico MPS 68091
2002 12 02.20218 00 37 52.52 +23 21 25.6 19.6   704 – Lincoln Laboratory ETS, New Mexico MPS 68091
2002 12 02.21718 00 37 52.57 +23 21 19.4 19.2   704 – Lincoln Laboratory ETS, New Mexico MPS 68091
2002 12 06.14017 00 38 06.12 +23 01 01.3 18.9   704 – Lincoln Laboratory ETS, New Mexico MPS 68091
2002 12 06.15465 00 38 06.19 +23 00 57.3 19.5   704 – Lincoln Laboratory ETS, New Mexico MPS 68091
2002 12 06.16937 00 38 06.22 +23 00 52.6 20.1   704 – Lincoln Laboratory ETS, New Mexico MPS 68091
2002 12 06.19857 00 38 06.30 +23 00 43.1 19.7   704 – Lincoln Laboratory ETS, New Mexico MPS 68091
2002 12 27.11782 00 44 45.35 +21 45 57.2 20.0   644 – Palomar Mountain/NEAT MPS 71618
2002 12 27.13896 00 44 45.98 +21 45 54.7 20.1   644 – Palomar Mountain/NEAT MPS 71618
2002 12 27.15980 00 44 46.58 +21 45 51.9 20.1   644 – Palomar Mountain/NEAT MPS 71618
2003 11 19.32258 06 15 29.97 +33 53 31.8 18.7   704 – Lincoln Laboratory ETS, New Mexico MPS 91525
2003 11 19.33555 06 15 29.47 +33 53 31.8 19.4   704 – Lincoln Laboratory ETS, New Mexico MPS 91525
2003 11 19.34850 06 15 28.95 +33 53 32.1 19.2   704 – Lincoln Laboratory ETS, New Mexico MPS 91525
2003 11 19.36131 06 15 28.45 +33 53 32.1 19.3   704 – Lincoln Laboratory ETS, New Mexico MPS 91525
2003 12 03.26799 06 04 57.67 +33 48 48.5 18.6   704 – Lincoln Laboratory ETS, New Mexico MPS 93309
2003 12 03.28120 06 04 57.03 +33 48 47.4 19.0   704 – Lincoln Laboratory ETS, New Mexico MPS 93309
2003 12 03.29422 06 04 56.32 +33 48 47.0 19.4   704 – Lincoln Laboratory ETS, New Mexico MPS 93309
2003 12 03.30712 06 04 55.65 +33 48 45.1 19.8   704 – Lincoln Laboratory ETS, New Mexico MPS 93309
2003 12 17.26661 05 51 43.64 +33 26 34.3 18.8   704 – Lincoln Laboratory ETS, New Mexico MPS 94305
2003 12 17.27933 05 51 42.92 +33 26 32.9 19.2   704 – Lincoln Laboratory ETS, New Mexico MPS 94305
2003 12 17.29199 05 51 42.12 +33 26 31.0 19.1   704 – Lincoln Laboratory ETS, New Mexico MPS 94305
2003 12 17.31096 05 51 40.97 +33 26 28.3 19.3   704 – Lincoln Laboratory ETS, New Mexico MPS 94305
2003 12 17.32368 05 51 40.21 +33 26 26.2 19.1   704 – Lincoln Laboratory ETS, New Mexico MPS 94305
2003 12 29.25537 05 40 02.85 +32 52 14.0 19.6   704 – Lincoln Laboratory ETS, New Mexico MPS 96279
2003 12 29.26970 05 40 02.03 +32 52 12.0 19.2   704 – Lincoln Laboratory ETS, New Mexico MPS 96279
2003 12 29.28263 05 40 01.29 +32 52 09.6 19.5   704 – Lincoln Laboratory ETS, New Mexico MPS 96279
2003 12 29.29635 05 40 00.44 +32 52 05.9 19.5   704 – Lincoln Laboratory ETS, New Mexico MPS 96279
2004 03 22.12301 05 31 44.73 +27 43 22.4 19.9 C 704 – Lincoln Laboratory ETS, New Mexico MPS 293843
